Shenandoah, IA

3:23 AM CDT on August 29, 2016 (GMT -0500)
Shenandoah Municipal

Weather History for KSDA - March, 2013

Change the Weather History Date:

Friday, March 8, 2013

  Actual Average Record
Temperature  
Mean Temperature 42 °F -  
Max Temperature 55 °F 48 °F 77 °F (1977)
Min Temperature 30 °F 25 °F -5 °F (2008)
Degree Days  
Heating Degree Days 22    
Moisture  
Dew Point 29 °F    
Average Humidity 62    
Maximum Humidity 80    
Minimum Humidity 44    
Precipitation  
Precipitation 0.00 in - - ()
Sea Level Pressure  
Sea Level Pressure 30.12 in    
Wind  
Wind Speed 10 mph (SE)    
Max Wind Speed 24 mph    
Max Gust Speed 30 mph    
Visibility 10 miles    
Events Rain    
Averages and records for this station are not official NWS values.
T = Trace of Precipitation, MM = Missing Value Source: NWS Daily Summary

Daily Weather History Graph

Daily Weather History Graph

Search for Another Location

Airport or City:

Trip Planner

Search our weather history database for the weather conditions in past years. The results will help you decide how hot, cold, wet, or windy it might be!

Date:

Astronomy

Mar. 08, 2013 Rise Set
Actual Time 6:44 AM CST 6:21 PM CST
Civil Twilight 6:16 AM CST 6:48 PM CST
Nautical Twilight 5:45 AM CST 7:20 PM CST
Astronomical Twilight 5:13 AM CST 7:52 PM CST
Moon 4:30 AM CST (3/8) 3:16 PM CST (3/8)
Length of Visible Light 12h 31m
Length of Day
11h 36m
Waning Crescent, 11% of the Moon is Illuminated
Mar 8
Waning Crescent
Mar 11
New
Mar 19
First Quarter
Mar 27
Full
Apr 2
Last Quarter

Hourly Weather History & Observations

Time (CST) Temp. Windchill Dew Point Humidity Pressure Visibility Wind Dir Wind Speed Gust Speed Precip Events Conditions
12:15 AM 32.0 °F 25.6 °F 23.0 °F 69% 30.22 in 10.0 mi ESE 6.9 mph - N/A   Scattered Clouds
12:35 AM 32.0 °F 25.6 °F 23.0 °F 69% 30.21 in 10.0 mi ESE 6.9 mph - N/A   Scattered Clouds
12:55 AM 32.0 °F 27.5 °F 23.0 °F 69% 30.22 in 10.0 mi East 4.6 mph - N/A   Scattered Clouds
1:15 AM 30.2 °F 22.6 °F 23.0 °F 75% 30.22 in 10.0 mi ESE 8.1 mph - N/A   Scattered Clouds
1:35 AM 32.0 °F 26.4 °F 23.0 °F 69% 30.22 in 10.0 mi ESE 5.8 mph - N/A   Scattered Clouds
1:55 AM 32.0 °F 24.8 °F 23.0 °F 69% 30.22 in 10.0 mi SE 8.1 mph - N/A   Scattered Clouds
2:15 AM 32.0 °F 25.6 °F 23.0 °F 69% 30.21 in 10.0 mi ESE 6.9 mph - N/A   Scattered Clouds
2:35 AM 32.0 °F 26.4 °F 23.0 °F 69% 30.21 in 10.0 mi SE 5.8 mph - N/A   Scattered Clouds
2:55 AM 32.0 °F 24.8 °F 23.0 °F 69% 30.20 in 10.0 mi SE 8.1 mph - N/A   Scattered Clouds
3:15 AM 32.0 °F 26.4 °F 24.8 °F 75% 30.19 in 10.0 mi SE 5.8 mph - N/A   Scattered Clouds
3:35 AM 32.0 °F 26.4 °F 24.8 °F 75% 30.19 in 10.0 mi SE 5.8 mph - N/A   Scattered Clouds
3:55 AM 30.2 °F 26.7 °F 23.0 °F 75% 30.19 in 10.0 mi East 3.5 mph - N/A   Scattered Clouds
4:15 AM 30.2 °F 24.3 °F 23.0 °F 75% 30.18 in 10.0 mi ESE 5.8 mph - N/A   Scattered Clouds
4:35 AM 30.2 °F 24.3 °F 23.0 °F 75% 30.18 in 10.0 mi ESE 5.8 mph - N/A   Scattered Clouds
4:55 AM 30.2 °F 25.4 °F 24.8 °F 80% 30.18 in 10.0 mi East 4.6 mph - N/A   Scattered Clouds
5:15 AM 30.2 °F 24.3 °F 24.8 °F 80% 30.18 in 10.0 mi East 5.8 mph - N/A   Scattered Clouds
5:35 AM 30.2 °F 24.3 °F 24.8 °F 80% 30.18 in 10.0 mi East 5.8 mph - N/A   Scattered Clouds
5:55 AM 32.0 °F 28.7 °F 24.8 °F 75% 30.18 in 10.0 mi East 3.5 mph - N/A   Scattered Clouds
6:15 AM 32.0 °F 28.7 °F 24.8 °F 75% 30.18 in 10.0 mi East 3.5 mph - N/A   Scattered Clouds
6:35 AM 32.0 °F 27.5 °F 24.8 °F 75% 30.19 in 10.0 mi ESE 4.6 mph - N/A   Scattered Clouds
6:55 AM 30.2 °F 24.3 °F 24.8 °F 80% 30.19 in 7.0 mi ESE 5.8 mph - N/A   Scattered Clouds
7:15 AM 32.0 °F 25.6 °F 24.8 °F 75% 30.18 in 7.0 mi ESE 6.9 mph - N/A   Clear
7:35 AM 33.8 °F 26.4 °F 24.8 °F 70% 30.18 in 7.0 mi ESE 9.2 mph - N/A   Clear
7:55 AM 35.6 °F 32.8 °F 26.6 °F 70% 30.18 in 10.0 mi East 3.5 mph - N/A   Clear
8:15 AM 35.6 °F 29.2 °F 26.6 °F 70% 30.18 in 10.0 mi ESE 8.1 mph - N/A   Clear
8:35 AM 37.4 °F 32.1 °F 26.6 °F 65% 30.18 in 10.0 mi ESE 6.9 mph - N/A   Clear
8:55 AM 39.2 °F 35.0 °F 28.4 °F 65% 30.19 in 10.0 mi SE 5.8 mph - N/A   Clear
9:15 AM 41.0 °F 35.8 °F 28.4 °F 61% 30.18 in 10.0 mi SE 8.1 mph - N/A   Clear
9:35 AM 42.8 °F 37.5 °F 28.4 °F 57% 30.18 in 10.0 mi SE 9.2 mph - N/A   Clear
9:55 AM 44.6 °F 39.7 °F 28.4 °F 53% 30.18 in 10.0 mi SE 9.2 mph - N/A   Clear
10:15 AM 46.4 °F 41.1 °F 30.2 °F 53% 30.17 in 10.0 mi SE 11.5 mph - N/A   Clear
10:35 AM 50.0 °F - 30.2 °F 47% 30.17 in 10.0 mi SE 11.5 mph - N/A   Clear
10:55 AM 51.8 °F - 30.2 °F 44% 30.16 in 10.0 mi SE 13.8 mph 19.6 mph N/A   Scattered Clouds
11:15 AM 51.8 °F - 30.2 °F 44% 30.16 in 10.0 mi SSE 16.1 mph - N/A   Clear
11:35 AM 50.0 °F - 30.2 °F 47% 30.15 in 10.0 mi SE 16.1 mph 20.7 mph N/A   Clear
11:55 AM 51.8 °F - 32.0 °F 47% 30.15 in 10.0 mi SSE 11.5 mph - N/A   Clear
12:15 PM 53.6 °F - 32.0 °F 44% 30.15 in 10.0 mi South 12.7 mph - N/A   Clear
12:35 PM 53.6 °F - 32.0 °F 44% 30.14 in 10.0 mi SSE 15.0 mph - N/A   Clear
12:55 PM 53.6 °F - 33.8 °F 47% 30.13 in 10.0 mi SE 16.1 mph 19.6 mph N/A   Clear
1:15 PM 53.6 °F - 33.8 °F 47% 30.11 in 10.0 mi SSE 17.3 mph 20.7 mph N/A   Clear
1:35 PM 55.4 °F - 33.8 °F 44% 30.10 in 10.0 mi SE 17.3 mph 21.9 mph N/A   Clear
1:55 PM 55.4 °F - 33.8 °F 44% 30.09 in 10.0 mi SE 13.8 mph 19.6 mph N/A   Clear
2:15 PM 53.6 °F - 33.8 °F 47% 30.08 in 10.0 mi SE 18.4 mph - N/A   Clear
2:35 PM 53.6 °F - 35.6 °F 51% 30.07 in 10.0 mi ESE 16.1 mph 20.7 mph N/A   Clear
2:55 PM 53.6 °F - 35.6 °F 51% 30.08 in 10.0 mi SE 17.3 mph - N/A   Clear
3:15 PM 51.8 °F - 35.6 °F 54% 30.08 in 10.0 mi SE 21.9 mph - N/A   Clear
3:35 PM 50.0 °F - 33.8 °F 54% 30.07 in 10.0 mi SE 20.7 mph 25.3 mph N/A   Scattered Clouds
3:55 PM 48.2 °F - 33.8 °F 58% 30.06 in 10.0 mi SE 24.2 mph 28.8 mph N/A   Scattered Clouds
4:15 PM 48.2 °F - 33.8 °F 58% 30.05 in 10.0 mi SE 20.7 mph 28.8 mph N/A   Scattered Clouds
4:35 PM 46.4 °F 38.7 °F 32.0 °F 57% 30.04 in 10.0 mi SE 20.7 mph 26.5 mph N/A   Mostly Cloudy
4:55 PM 46.4 °F 39.2 °F 32.0 °F 57% 30.05 in 10.0 mi SE 18.4 mph 25.3 mph N/A   Overcast
5:15 PM 44.6 °F 36.9 °F 32.0 °F 61% 30.05 in 10.0 mi SE 18.4 mph 24.2 mph N/A   Overcast
5:35 PM 44.6 °F 35.7 °F 32.0 °F 61% 30.04 in 10.0 mi SE 24.2 mph - N/A   Overcast
5:55 PM 44.6 °F 36.4 °F 30.2 °F 57% 30.04 in 10.0 mi SE 20.7 mph 27.6 mph N/A   Overcast
6:15 PM 44.6 °F 35.7 °F 30.2 °F 57% 30.03 in 10.0 mi SE 24.2 mph 29.9 mph N/A   Overcast
6:35 PM 42.8 °F 34.0 °F 30.2 °F 61% 30.03 in 10.0 mi SE 20.7 mph - N/A   Overcast
6:55 PM 42.8 °F 35.1 °F 30.2 °F 61% 30.03 in 10.0 mi SE 16.1 mph 20.7 mph N/A   Drizzle
7:15 PM 42.8 °F 35.8 °F 30.2 °F 61% 30.04 in 10.0 mi SE 13.8 mph - N/A   Overcast
7:35 PM 42.8 °F 35.4 °F 30.2 °F 61% 30.03 in 10.0 mi SE 15.0 mph - N/A   Overcast
7:55 PM 44.6 °F 37.4 °F 30.2 °F 57% 30.03 in 10.0 mi SE 16.1 mph 20.7 mph N/A   Overcast
8:15 PM 44.6 °F 36.9 °F 30.2 °F 57% 30.02 in 10.0 mi SE 18.4 mph 26.5 mph N/A   Overcast
8:35 PM 44.6 °F 37.8 °F 32.0 °F 61% 30.02 in 10.0 mi SE 15.0 mph 20.7 mph N/A   Overcast
8:55 PM 44.6 °F 37.4 °F 32.0 °F 61% 30.02 in 10.0 mi SE 16.1 mph 19.6 mph N/A   Overcast
9:15 PM 44.6 °F 37.2 °F 30.2 °F 57% 30.02 in 10.0 mi SE 17.3 mph 26.5 mph N/A   Overcast
9:35 PM 44.6 °F 38.1 °F 32.0 °F 61% 30.02 in 10.0 mi SSE 13.8 mph - N/A   Light Drizzle
9:55 PM 42.8 °F 36.2 °F 33.8 °F 70% 30.02 in 10.0 mi SE 12.7 mph - N/A   Drizzle
10:15 PM 44.6 °F 36.9 °F 33.8 °F 66% 30.00 in 10.0 mi SE 18.4 mph 21.9 mph N/A   Overcast
10:35 PM 42.8 °F 35.4 °F 33.8 °F 70% 30.00 in 10.0 mi SE 15.0 mph - N/A   Drizzle
10:55 PM 42.8 °F 34.5 °F 33.8 °F 70% 29.98 in 10.0 mi SE 18.4 mph - N/A   Light Drizzle
11:15 PM 42.8 °F 35.1 °F 33.8 °F 70% 29.97 in 10.0 mi SSE 16.1 mph - N/A   Overcast
11:35 PM 44.6 °F 37.4 °F 33.8 °F 66% 29.96 in 10.0 mi SSE 16.1 mph 21.9 mph N/A   Overcast
11:55 PM 42.8 °F 36.2 °F 35.6 °F 76% 29.94 in 10.0 mi SSE 12.7 mph 21.9 mph N/A Rain Light Rain